VIV147 KLAX-MMMX

Flight info

Callsign VIV147
Flight time 3h 4m
Altitude 37000
Route PNDAH2 TCATE DCT PPE UJ7 HMO UT18 NABAS UT49 DGO UJ5 ZCL UT130 DARAN DARAN3A
Aircraft B738/M-SDE2E3FGHIRWXY/LB1

Departure

Time 2026-04-22 13:07
Airport Los Angeles International Airport (KLAX)

Arrival

Time 2026-04-22 16:12
Airport Mexico City Benito Juárez International Airport (MMMX)
Time Latitude Longitude Altitude Speed Heading
2026-04-22 12:40 33.94688 -118.40991 125 ft 0 kts 218°
2026-04-22 12:59 33.94691 -118.40988 119 ft 2 kts 216°
2026-04-22 12:59 33.94704 -118.40976 122 ft 2 kts 221°
2026-04-22 12:59 33.94717 -118.40963 124 ft 2 kts 218°
2026-04-22 12:59 33.94728 -118.40948 123 ft 2 kts 246°
2026-04-22 13:00 33.94731 -118.40929 123 ft 2 kts 310°
2026-04-22 13:00 33.94718 -118.40917 121 ft 2 kts 341°
2026-04-22 13:00 33.94711 -118.40915 122 ft 0 kts 358°
2026-04-22 13:03 33.94721 -118.40915 122 ft 4 kts 359°
2026-04-22 13:03 33.94746 -118.40903 122 ft 4 kts 46°
2026-04-22 13:03 33.94753 -118.40870 125 ft 5 kts 79°
2026-04-22 13:03 33.94763 -118.40790 123 ft 12 kts 83°
2026-04-22 13:04 33.94773 -118.40691 125 ft 12 kts 83°
2026-04-22 13:04 33.94783 -118.40595 125 ft 11 kts 83°
2026-04-22 13:04 33.94793 -118.40501 125 ft 11 kts 83°
2026-04-22 13:04 33.94802 -118.40410 122 ft 11 kts 83°
2026-04-22 13:05 33.94813 -118.40326 124 ft 10 kts 68°
2026-04-22 13:05 33.94870 -118.40289 123 ft 10 kts 17°
2026-04-22 13:05 33.94903 -118.40226 122 ft 9 kts 79°
2026-04-22 13:05 33.94944 -118.40172 123 ft 9 kts 17°
2026-04-22 13:06 33.94998 -118.40179 123 ft 4 kts 349°
2026-04-22 13:06 33.95016 -118.40197 122 ft 4 kts 287°
2026-04-22 13:06 33.95013 -118.40232 122 ft 6 kts 263°
2026-04-22 13:06 33.94982 -118.40535 125 ft 73 kts 263°
2026-04-22 13:07 33.94892 -118.41413 125 ft 138 kts 263°
2026-04-22 13:07 33.94758 -118.42767 372 ft 172 kts 264°
2026-04-22 13:07 33.94603 -118.44183 1235 ft 170 kts 264°
2026-04-22 13:07 33.94465 -118.45575 2098 ft 170 kts 264°
2026-04-22 13:08 33.94333 -118.47080 2496 ft 198 kts 267°
2026-04-22 13:08 33.94271 -118.48841 2758 ft 223 kts 269°
2026-04-22 13:08 33.94221 -118.50821 3049 ft 245 kts 268°
2026-04-22 13:08 33.94095 -118.52883 3700 ft 254 kts 265°
2026-04-22 13:09 33.93921 -118.54991 4673 ft 253 kts 265°
2026-04-22 13:09 33.93746 -118.57109 5575 ft 255 kts 265°
2026-04-22 13:09 33.93574 -118.59243 6479 ft 256 kts 266°
2026-04-22 13:09 33.93178 -118.61333 7306 ft 261 kts 246°
2026-04-22 13:10 33.92036 -118.63044 8171 ft 268 kts 221°
2026-04-22 13:10 33.90334 -118.64022 9000 ft 279 kts 197°
2026-04-22 13:10 33.88360 -118.64131 9827 ft 289 kts 182°
2026-04-22 13:10 33.86333 -118.63975 10442 ft 300 kts 182°
2026-04-22 13:11 33.84169 -118.63624 10589 ft 332 kts 167°
2026-04-22 13:11 33.82049 -118.62252 10912 ft 357 kts 150°
2026-04-22 13:11 33.79983 -118.60530 11513 ft 364 kts 149°
2026-04-22 13:11 33.77902 -118.58775 12237 ft 367 kts 150°
2026-04-22 13:12 33.75788 -118.57018 12948 ft 371 kts 150°
2026-04-22 13:12 33.73642 -118.55264 13617 ft 375 kts 151°
2026-04-22 13:12 33.71464 -118.53497 14243 ft 380 kts 151°
2026-04-22 13:12 33.69460 -118.51366 14820 ft 395 kts 131°
2026-04-22 13:13 33.68045 -118.48506 15474 ft 401 kts 121°
2026-04-22 13:13 33.66770 -118.45500 16086 ft 406 kts 120°
2026-04-22 13:13 33.65502 -118.42450 16653 ft 411 kts 120°
2026-04-22 13:13 33.64213 -118.39365 17230 ft 415 kts 120°
2026-04-22 13:14 33.62902 -118.36262 17813 ft 419 kts 121°
2026-04-22 13:14 33.61567 -118.33137 18398 ft 423 kts 121°
2026-04-22 13:14 33.60212 -118.29986 18905 ft 426 kts 121°
2026-04-22 13:14 33.58844 -118.26816 19425 ft 429 kts 121°
2026-04-22 13:15 33.57465 -118.23625 19948 ft 432 kts 121°
2026-04-22 13:15 33.56077 -118.20415 20178 ft 433 kts 121°
2026-04-22 13:15 33.54691 -118.17211 20171 ft 433 kts 121°
2026-04-22 13:15 33.53302 -118.14003 20176 ft 435 kts 121°
2026-04-22 13:16 33.51914 -118.10780 20172 ft 435 kts 121°
2026-04-22 13:16 33.50531 -118.07561 20180 ft 434 kts 121°
2026-04-22 13:16 33.49149 -118.04346 20184 ft 434 kts 121°
2026-04-22 13:16 33.47763 -118.01131 20179 ft 434 kts 122°
2026-04-22 13:17 33.46119 -117.98152 20163 ft 425 kts 139°
2026-04-22 13:17 33.43975 -117.95772 20187 ft 419 kts 144°
2026-04-22 13:17 33.42522 -117.94263 20181 ft 419 kts 145°
2026-04-22 13:17 33.40312 -117.91991 20179 ft 419 kts 145°
2026-04-22 13:18 33.38090 -117.89695 20321 ft 426 kts 144°
2026-04-22 13:18 33.35852 -117.87361 20912 ft 426 kts 144°
2026-04-22 13:18 33.33634 -117.85024 21554 ft 425 kts 144°
2026-04-22 13:18 33.31414 -117.82677 22069 ft 427 kts 144°
2026-04-22 13:19 33.29182 -117.80314 22521 ft 431 kts 144°
2026-04-22 13:19 33.26929 -117.77929 22988 ft 434 kts 144°
2026-04-22 13:19 33.24662 -117.75530 23471 ft 436 kts 144°
2026-04-22 13:19 33.22387 -117.73123 23910 ft 439 kts 144°
2026-04-22 13:20 33.20094 -117.70701 24287 ft 441 kts 144°
2026-04-22 13:20 33.17791 -117.68256 24650 ft 446 kts 142°
2026-04-22 13:20 33.15827 -117.65326 24970 ft 461 kts 122°
2026-04-22 13:20 33.14575 -117.61772 25369 ft 468 kts 113°
2026-04-22 13:21 33.13503 -117.58093 25743 ft 471 kts 112°
2026-04-22 13:21 33.12460 -117.54379 26069 ft 474 kts 111°
2026-04-22 13:21 33.11411 -117.50639 26403 ft 477 kts 112°
2026-04-22 13:21 33.10342 -117.46882 26743 ft 479 kts 112°
2026-04-22 13:22 33.09254 -117.43116 27086 ft 481 kts 112°
2026-04-22 13:22 33.08147 -117.39337 27418 ft 484 kts 112°
2026-04-22 13:22 33.07028 -117.35547 27739 ft 486 kts 112°
2026-04-22 13:22 33.05898 -117.31739 28052 ft 488 kts 112°
2026-04-22 13:23 33.04760 -117.27914 28379 ft 491 kts 112°
2026-04-22 13:23 33.03617 -117.24075 28688 ft 493 kts 112°
2026-04-22 13:23 33.02467 -117.20215 28994 ft 495 kts 112°
2026-04-22 13:23 33.01327 -117.16392 29298 ft 498 kts 112°
2026-04-22 13:24 33.00164 -117.12495 29603 ft 500 kts 112°
2026-04-22 13:24 32.98998 -117.08591 29895 ft 502 kts 112°
2026-04-22 13:24 32.97824 -117.04667 30191 ft 504 kts 112°
2026-04-22 13:24 32.96643 -117.00723 30428 ft 506 kts 112°
2026-04-22 13:25 32.95457 -116.96769 30678 ft 508 kts 112°
2026-04-22 13:25 32.94266 -116.92803 30920 ft 509 kts 113°
2026-04-22 13:25 32.93071 -116.88828 31187 ft 510 kts 113°
2026-04-22 13:25 32.91877 -116.84859 31508 ft 509 kts 113°
2026-04-22 13:26 32.90684 -116.80900 31865 ft 508 kts 113°
2026-04-22 13:26 32.89491 -116.76947 32180 ft 507 kts 113°
2026-04-22 13:26 32.88297 -116.72997 32453 ft 508 kts 113°
2026-04-22 13:26 32.87100 -116.69045 32727 ft 508 kts 113°
2026-04-22 13:27 32.85900 -116.65085 33007 ft 509 kts 113°
2026-04-22 13:27 32.84699 -116.61126 33272 ft 509 kts 113°
2026-04-22 13:27 32.83495 -116.57161 33512 ft 510 kts 113°
2026-04-22 13:27 32.82288 -116.53190 33769 ft 511 kts 114°
2026-04-22 13:28 32.81079 -116.49223 34027 ft 511 kts 114°
2026-04-22 13:28 32.79742 -116.45323 34271 ft 508 kts 119°
2026-04-22 13:28 32.78196 -116.41559 34462 ft 507 kts 122°
2026-04-22 13:28 32.76539 -116.37859 34592 ft 508 kts 123°
2026-04-22 13:29 32.74838 -116.34168 34755 ft 510 kts 123°
2026-04-22 13:29 32.73139 -116.30470 34926 ft 511 kts 123°
2026-04-22 13:29 32.71454 -116.26749 35094 ft 512 kts 123°
2026-04-22 13:29 32.69786 -116.23008 35246 ft 514 kts 122°
2026-04-22 13:30 32.68126 -116.19241 35409 ft 515 kts 122°
2026-04-22 13:30 32.66471 -116.15457 35559 ft 517 kts 122°
2026-04-22 13:30 32.64818 -116.11669 35729 ft 518 kts 122°
2026-04-22 13:30 32.63162 -116.07874 35890 ft 519 kts 122°
2026-04-22 13:31 32.61498 -116.04067 36075 ft 519 kts 122°
2026-04-22 13:31 32.59837 -116.00274 36230 ft 519 kts 122°
2026-04-22 13:31 32.58172 -115.96481 36391 ft 519 kts 122°
2026-04-22 13:31 32.56498 -115.92675 36503 ft 521 kts 122°
2026-04-22 13:32 32.54819 -115.88863 36654 ft 522 kts 122°
2026-04-22 13:32 32.53140 -115.85052 36825 ft 522 kts 122°
2026-04-22 13:32 32.51457 -115.81238 36983 ft 522 kts 122°
2026-04-22 13:32 32.49773 -115.77427 37104 ft 523 kts 122°
2026-04-22 13:33 32.48081 -115.73600 37124 ft 526 kts 122°
2026-04-22 13:33 32.44707 -115.65982 37111 ft 524 kts 122°
2026-04-22 13:34 32.41304 -115.58310 37086 ft 521 kts 122°
2026-04-22 13:34 32.37937 -115.50737 37070 ft 520 kts 122°
2026-04-22 13:35 32.34567 -115.43177 37045 ft 519 kts 122°
2026-04-22 13:35 32.31202 -115.35643 37051 ft 518 kts 122°
2026-04-22 13:36 32.27858 -115.28171 37058 ft 518 kts 122°
2026-04-22 13:36 32.24482 -115.20645 37052 ft 519 kts 122°
2026-04-22 13:37 32.21067 -115.13047 37054 ft 521 kts 122°
2026-04-22 13:37 32.17679 -115.05524 37054 ft 523 kts 122°
2026-04-22 13:38 32.14255 -114.97935 37054 ft 525 kts 122°
2026-04-22 13:38 32.09094 -114.86527 37056 ft 526 kts 122°
2026-04-22 13:39 32.05642 -114.78913 37056 ft 526 kts 122°
2026-04-22 13:39 32.02185 -114.71307 37054 ft 526 kts 122°
2026-04-22 13:40 31.98727 -114.63716 37052 ft 525 kts 122°
2026-04-22 13:40 31.95272 -114.56143 37055 ft 524 kts 122°
2026-04-22 13:41 31.91819 -114.48594 37056 ft 523 kts 122°
2026-04-22 13:41 31.88367 -114.41060 37052 ft 522 kts 122°
2026-04-22 13:42 31.84915 -114.33544 37053 ft 522 kts 122°
2026-04-22 13:42 31.81467 -114.26050 37058 ft 521 kts 122°
2026-04-22 13:43 31.78017 -114.18567 37052 ft 520 kts 122°
2026-04-22 13:43 31.74565 -114.11096 37055 ft 520 kts 122°
2026-04-22 13:44 31.71130 -114.03676 37049 ft 520 kts 122°
2026-04-22 13:44 31.67669 -113.96214 37053 ft 521 kts 122°
2026-04-22 13:45 31.64202 -113.88755 37046 ft 521 kts 122°
2026-04-22 13:45 31.60725 -113.81288 37049 ft 522 kts 122°
2026-04-22 13:46 31.57241 -113.73822 37045 ft 522 kts 122°
2026-04-22 13:46 31.53749 -113.66352 37042 ft 523 kts 122°
2026-04-22 13:47 31.50249 -113.58881 37041 ft 523 kts 122°
2026-04-22 13:47 31.46742 -113.51408 37034 ft 524 kts 122°
2026-04-22 13:48 31.43228 -113.43935 37036 ft 524 kts 122°
2026-04-22 13:48 31.39710 -113.36466 37033 ft 524 kts 122°
2026-04-22 13:49 31.35775 -113.29369 37030 ft 516 kts 135°
2026-04-22 13:49 31.30628 -113.23696 37039 ft 506 kts 146°
2026-04-22 13:50 31.25253 -113.18360 37032 ft 507 kts 146°
2026-04-22 13:50 31.19898 -113.12994 37029 ft 508 kts 146°
2026-04-22 13:51 31.14559 -113.07583 37032 ft 508 kts 145°
2026-04-22 13:51 31.09223 -113.02160 37029 ft 509 kts 145°
2026-04-22 13:52 31.03880 -112.96738 37030 ft 510 kts 145°
2026-04-22 13:52 30.98522 -112.91314 37026 ft 510 kts 145°
2026-04-22 13:53 30.93157 -112.85895 37028 ft 511 kts 145°
2026-04-22 13:53 30.87785 -112.80475 37021 ft 511 kts 145°
2026-04-22 13:54 30.82442 -112.75093 37025 ft 511 kts 146°
2026-04-22 13:54 30.77024 -112.69644 37023 ft 511 kts 146°
2026-04-22 13:55 30.71678 -112.64276 37021 ft 512 kts 146°
2026-04-22 13:55 30.66287 -112.58871 37019 ft 512 kts 146°
2026-04-22 13:56 30.60896 -112.53473 37007 ft 511 kts 146°
2026-04-22 13:56 30.55518 -112.48096 37017 ft 510 kts 146°
2026-04-22 13:57 30.50139 -112.42729 37018 ft 510 kts 146°
2026-04-22 13:57 30.44755 -112.37363 37017 ft 510 kts 146°
2026-04-22 13:58 30.39372 -112.32007 37021 ft 510 kts 146°
2026-04-22 13:58 30.33987 -112.26657 37016 ft 510 kts 146°
2026-04-22 13:59 30.28603 -112.21316 37022 ft 510 kts 146°
2026-04-22 13:59 30.23216 -112.15979 37034 ft 510 kts 146°
2026-04-22 14:00 30.17817 -112.10639 37018 ft 511 kts 146°
2026-04-22 14:00 30.12413 -112.05302 37033 ft 511 kts 146°
2026-04-22 14:01 30.06996 -111.99960 37031 ft 512 kts 146°
2026-04-22 14:01 30.01582 -111.94627 37019 ft 511 kts 146°
2026-04-22 14:02 29.96168 -111.89304 37022 ft 512 kts 146°
2026-04-22 14:02 29.90744 -111.83977 37030 ft 512 kts 146°
2026-04-22 14:03 29.85320 -111.78658 37021 ft 512 kts 146°
2026-04-22 14:03 29.79895 -111.73349 37018 ft 512 kts 146°
2026-04-22 14:04 29.75389 -111.68945 37023 ft 511 kts 146°
2026-04-22 14:04 29.69961 -111.63646 37017 ft 512 kts 146°
2026-04-22 14:05 29.64533 -111.58353 37016 ft 512 kts 146°
2026-04-22 14:06 29.56381 -111.50417 37008 ft 512 kts 146°
2026-04-22 14:06 29.50938 -111.45128 37007 ft 512 kts 146°
2026-04-22 14:07 29.45493 -111.39843 37009 ft 513 kts 146°
2026-04-22 14:07 29.40043 -111.34564 37002 ft 513 kts 146°
2026-04-22 14:08 29.34581 -111.29286 37012 ft 513 kts 146°
2026-04-22 14:08 29.29119 -111.24021 37025 ft 514 kts 146°
2026-04-22 14:09 29.23646 -111.18752 37042 ft 513 kts 146°
2026-04-22 14:09 29.18180 -111.13493 37065 ft 513 kts 146°
2026-04-22 14:10 29.12710 -111.08236 37072 ft 513 kts 146°
2026-04-22 14:10 29.07349 -111.02811 37072 ft 518 kts 140°
2026-04-22 14:11 29.02397 -110.96883 37071 ft 520 kts 138°
2026-04-22 14:11 28.97457 -110.90850 37046 ft 520 kts 139°
2026-04-22 14:12 28.92468 -110.84878 37030 ft 519 kts 139°
2026-04-22 14:12 28.87458 -110.78948 37023 ft 519 kts 139°
2026-04-22 14:13 28.82444 -110.73020 37014 ft 519 kts 139°
2026-04-22 14:13 28.77427 -110.67087 37021 ft 519 kts 139°
2026-04-22 14:14 28.72406 -110.61177 37026 ft 519 kts 139°
2026-04-22 14:14 28.67356 -110.55305 37025 ft 519 kts 140°
2026-04-22 14:15 28.62301 -110.49444 37030 ft 519 kts 140°
2026-04-22 14:15 28.57246 -110.43582 37029 ft 518 kts 140°
2026-04-22 14:16 28.52198 -110.37730 37041 ft 518 kts 139°
2026-04-22 14:16 28.47146 -110.31882 37026 ft 519 kts 140°
2026-04-22 14:17 28.42093 -110.26040 37040 ft 518 kts 140°
2026-04-22 14:17 28.37037 -110.20205 37034 ft 518 kts 139°
2026-04-22 14:18 28.31977 -110.14373 37034 ft 518 kts 139°
2026-04-22 14:18 28.26920 -110.08554 37038 ft 518 kts 139°
2026-04-22 14:19 28.21859 -110.02736 37046 ft 518 kts 140°
2026-04-22 14:19 28.16799 -109.96928 37042 ft 517 kts 139°
2026-04-22 14:20 28.09271 -109.88149 37043 ft 518 kts 138°
2026-04-22 14:20 28.04275 -109.82273 37049 ft 518 kts 139°
2026-04-22 14:21 27.96767 -109.73484 37058 ft 518 kts 139°
2026-04-22 14:22 27.89228 -109.64691 37055 ft 519 kts 139°
2026-04-22 14:23 27.81679 -109.55904 37063 ft 520 kts 139°
2026-04-22 14:23 27.76640 -109.50049 37059 ft 520 kts 138°
2026-04-22 14:24 27.71599 -109.44200 37066 ft 520 kts 138°
2026-04-22 14:24 27.66552 -109.38349 37063 ft 520 kts 138°
2026-04-22 14:25 27.61514 -109.32517 37064 ft 519 kts 138°
2026-04-22 14:25 27.56503 -109.26739 37064 ft 518 kts 139°
2026-04-22 14:26 27.51442 -109.20976 37068 ft 517 kts 139°
2026-04-22 14:26 27.46380 -109.15231 37063 ft 516 kts 139°
2026-04-22 14:27 27.41323 -109.09490 37054 ft 516 kts 139°
2026-04-22 14:27 27.36271 -109.03756 37065 ft 516 kts 139°
2026-04-22 14:28 27.31222 -108.98031 37072 ft 515 kts 139°
2026-04-22 14:28 27.26181 -108.92324 37081 ft 515 kts 139°
2026-04-22 14:29 27.21130 -108.86615 37071 ft 515 kts 139°
2026-04-22 14:29 27.16068 -108.80900 37079 ft 516 kts 139°
2026-04-22 14:30 27.11000 -108.75187 37089 ft 517 kts 139°
2026-04-22 14:30 27.05910 -108.69457 37079 ft 518 kts 138°
2026-04-22 14:31 27.00821 -108.63734 37079 ft 518 kts 139°
2026-04-22 14:31 26.95727 -108.58015 37073 ft 518 kts 139°
2026-04-22 14:32 26.90639 -108.52309 37077 ft 518 kts 139°
2026-04-22 14:32 26.85542 -108.46601 37067 ft 517 kts 139°
2026-04-22 14:33 26.80453 -108.40909 37076 ft 516 kts 138°
2026-04-22 14:33 26.75374 -108.35237 37075 ft 516 kts 138°
2026-04-22 14:34 26.70295 -108.29572 37069 ft 515 kts 138°
2026-04-22 14:34 26.65222 -108.23920 37070 ft 514 kts 138°
2026-04-22 14:35 26.60186 -108.18317 37065 ft 514 kts 138°
2026-04-22 14:35 26.55629 -108.12142 37104 ft 517 kts 127°
2026-04-22 14:36 26.51497 -108.05570 37094 ft 517 kts 127°
2026-04-22 14:36 26.47377 -107.99001 37094 ft 516 kts 127°
2026-04-22 14:37 26.43219 -107.92487 37106 ft 515 kts 127°
2026-04-22 14:37 26.39038 -107.85995 37104 ft 515 kts 127°
2026-04-22 14:38 26.34851 -107.79508 37111 ft 515 kts 128°
2026-04-22 14:38 26.30666 -107.73028 37108 ft 514 kts 127°
2026-04-22 14:39 26.26485 -107.66558 37117 ft 515 kts 127°
2026-04-22 14:39 26.22293 -107.60082 37109 ft 516 kts 127°
2026-04-22 14:40 26.15990 -107.50359 37129 ft 517 kts 127°
2026-04-22 14:40 26.11770 -107.43862 37118 ft 518 kts 127°
2026-04-22 14:41 26.07558 -107.37386 37114 ft 517 kts 127°
2026-04-22 14:41 26.03355 -107.30933 37150 ft 515 kts 127°
2026-04-22 14:42 25.99155 -107.24492 37124 ft 513 kts 127°
2026-04-22 14:42 25.94970 -107.18084 37141 ft 512 kts 127°
2026-04-22 14:43 25.90778 -107.11673 37146 ft 513 kts 127°
2026-04-22 14:43 25.86607 -107.05303 37177 ft 512 kts 127°
2026-04-22 14:44 25.82417 -106.98892 37180 ft 514 kts 127°
2026-04-22 14:44 25.78210 -106.92452 37176 ft 516 kts 128°
2026-04-22 14:45 25.73988 -106.85998 37183 ft 518 kts 127°
2026-04-22 14:45 25.69752 -106.79534 37184 ft 518 kts 127°
2026-04-22 14:46 25.65517 -106.73079 37190 ft 517 kts 127°
2026-04-22 14:46 25.61280 -106.66632 37188 ft 517 kts 127°
2026-04-22 14:47 25.57049 -106.60200 37195 ft 516 kts 127°
2026-04-22 14:47 25.52819 -106.53781 37179 ft 515 kts 128°
2026-04-22 14:48 25.48606 -106.47396 37184 ft 514 kts 128°
2026-04-22 14:48 25.44393 -106.41019 37195 ft 513 kts 128°
2026-04-22 14:49 25.40160 -106.34655 37199 ft 513 kts 128°
2026-04-22 14:49 25.35873 -106.28346 37191 ft 513 kts 129°
2026-04-22 14:50 25.31577 -106.22045 37193 ft 513 kts 129°
2026-04-22 14:50 25.27287 -106.15739 37201 ft 514 kts 128°
2026-04-22 14:51 25.23016 -106.09461 37177 ft 514 kts 128°
2026-04-22 14:51 25.18718 -106.03150 37172 ft 514 kts 128°
2026-04-22 14:52 25.15120 -105.97876 37179 ft 513 kts 128°
2026-04-22 14:52 25.10834 -105.91598 37180 ft 512 kts 129°
2026-04-22 14:53 25.06542 -105.85322 37173 ft 513 kts 129°
2026-04-22 14:53 25.02245 -105.79045 37175 ft 513 kts 129°
2026-04-22 14:54 24.97975 -105.72814 37170 ft 513 kts 129°
2026-04-22 14:54 24.93672 -105.66543 37174 ft 513 kts 129°
2026-04-22 14:55 24.89366 -105.60274 37169 ft 513 kts 129°
2026-04-22 14:55 24.85056 -105.54005 37162 ft 514 kts 129°
2026-04-22 14:56 24.80742 -105.47740 37164 ft 513 kts 129°
2026-04-22 14:56 24.76433 -105.41492 37159 ft 512 kts 128°
2026-04-22 14:57 24.72133 -105.35263 37170 ft 511 kts 129°
2026-04-22 14:57 24.67830 -105.29037 37169 ft 512 kts 128°
2026-04-22 14:58 24.63515 -105.22804 37170 ft 512 kts 129°
2026-04-22 14:58 24.59193 -105.16578 37168 ft 513 kts 129°
2026-04-22 14:59 24.54860 -105.10347 37177 ft 513 kts 129°
2026-04-22 14:59 24.50522 -105.04114 37161 ft 514 kts 129°
2026-04-22 15:00 24.46182 -104.97883 37170 ft 514 kts 129°
2026-04-22 15:00 24.41839 -104.91656 37164 ft 513 kts 129°
2026-04-22 15:01 24.37500 -104.85444 37166 ft 513 kts 129°
2026-04-22 15:01 24.33156 -104.79232 37185 ft 513 kts 129°
2026-04-22 15:02 24.28817 -104.73035 37236 ft 512 kts 129°
2026-04-22 15:02 24.24510 -104.66890 37297 ft 511 kts 129°
2026-04-22 15:03 24.20175 -104.60714 37339 ft 511 kts 129°
2026-04-22 15:03 24.15841 -104.54545 37347 ft 511 kts 129°
2026-04-22 15:04 24.11535 -104.48365 37350 ft 510 kts 128°
2026-04-22 15:04 24.07325 -104.42110 37338 ft 510 kts 127°
2026-04-22 15:05 24.03131 -104.35850 37277 ft 510 kts 127°
2026-04-22 15:05 23.98925 -104.29612 37230 ft 509 kts 127°
2026-04-22 15:06 23.94710 -104.23386 37179 ft 509 kts 127°
2026-04-22 15:06 23.90496 -104.17173 37147 ft 509 kts 127°
2026-04-22 15:07 23.86275 -104.10955 37147 ft 509 kts 127°
2026-04-22 15:07 23.82058 -104.04748 37145 ft 509 kts 127°
2026-04-22 15:08 23.77839 -103.98545 37151 ft 509 kts 127°
2026-04-22 15:08 23.73616 -103.92344 37145 ft 509 kts 127°
2026-04-22 15:09 23.69393 -103.86151 37154 ft 509 kts 127°
2026-04-22 15:09 23.65200 -103.79992 37159 ft 509 kts 127°
2026-04-22 15:10 23.60966 -103.73795 37152 ft 509 kts 127°
2026-04-22 15:10 23.56723 -103.67614 37158 ft 509 kts 127°
2026-04-22 15:11 23.52486 -103.61443 37148 ft 508 kts 127°
2026-04-22 15:11 23.48254 -103.55281 37164 ft 508 kts 127°
2026-04-22 15:12 23.44026 -103.49126 37151 ft 508 kts 127°
2026-04-22 15:12 23.39797 -103.42976 37147 ft 507 kts 127°
2026-04-22 15:13 23.35573 -103.36842 37154 ft 506 kts 127°
2026-04-22 15:13 23.31348 -103.30713 37145 ft 506 kts 127°
2026-04-22 15:14 23.27121 -103.24588 37150 ft 506 kts 127°
2026-04-22 15:14 23.22892 -103.18468 37150 ft 506 kts 127°
2026-04-22 15:15 23.18662 -103.12352 37148 ft 506 kts 127°
2026-04-22 15:15 23.14426 -103.06236 37156 ft 506 kts 127°
2026-04-22 15:16 23.10187 -103.00128 37163 ft 507 kts 127°
2026-04-22 15:16 23.05936 -102.94011 37203 ft 507 kts 127°
2026-04-22 15:17 23.01691 -102.87907 37269 ft 507 kts 127°
2026-04-22 15:17 22.97443 -102.81804 37323 ft 506 kts 127°
2026-04-22 15:18 22.93196 -102.75710 37369 ft 506 kts 128°
2026-04-22 15:18 22.88771 -102.69789 37362 ft 504 kts 137°
2026-04-22 15:19 22.83269 -102.65176 37376 ft 499 kts 149°
2026-04-22 15:19 22.77438 -102.61085 37320 ft 499 kts 150°
2026-04-22 15:20 22.71660 -102.57013 37271 ft 499 kts 149°
2026-04-22 15:20 22.65875 -102.52876 37215 ft 498 kts 149°
2026-04-22 15:21 22.60111 -102.48731 37161 ft 497 kts 149°
2026-04-22 15:21 22.54355 -102.44595 37149 ft 496 kts 149°
2026-04-22 15:22 22.48612 -102.40476 37156 ft 495 kts 149°
2026-04-22 15:22 22.42869 -102.36363 37150 ft 495 kts 149°
2026-04-22 15:23 22.37132 -102.32257 37143 ft 494 kts 149°
2026-04-22 15:23 22.31411 -102.28168 37140 ft 492 kts 149°
2026-04-22 15:24 22.25702 -102.24091 37138 ft 491 kts 149°
2026-04-22 15:24 22.20010 -102.20030 37142 ft 490 kts 149°
2026-04-22 15:25 22.14320 -102.15976 37139 ft 489 kts 149°
2026-04-22 15:25 22.08641 -102.11932 37138 ft 489 kts 149°
2026-04-22 15:26 22.02977 -102.07904 37145 ft 488 kts 149°
2026-04-22 15:26 21.97312 -102.03878 37138 ft 487 kts 149°
2026-04-22 15:27 21.91655 -101.99862 37142 ft 487 kts 149°
2026-04-22 15:27 21.86000 -101.95851 37146 ft 487 kts 149°
2026-04-22 15:28 21.80343 -101.91843 37151 ft 487 kts 150°
2026-04-22 15:28 21.74676 -101.87832 37146 ft 488 kts 150°
2026-04-22 15:29 21.69012 -101.83825 37154 ft 487 kts 150°
2026-04-22 15:30 21.61465 -101.78492 37154 ft 487 kts 150°
2026-04-22 15:30 21.55324 -101.73085 37156 ft 493 kts 133°
2026-04-22 15:31 21.51356 -101.67051 37153 ft 496 kts 124°
2026-04-22 15:31 21.47632 -101.60818 37155 ft 496 kts 124°
2026-04-22 15:32 21.43873 -101.54609 37165 ft 496 kts 125°
2026-04-22 15:32 21.40075 -101.48433 37146 ft 496 kts 126°
2026-04-22 15:33 21.36285 -101.42305 37165 ft 497 kts 126°
2026-04-22 15:33 21.32462 -101.36126 37168 ft 497 kts 126°
2026-04-22 15:34 21.28636 -101.29944 37173 ft 498 kts 126°
2026-04-22 15:34 21.24802 -101.23755 37177 ft 499 kts 126°
2026-04-22 15:35 21.21585 -101.18566 37162 ft 499 kts 126°
2026-04-22 15:35 21.17114 -101.11363 37152 ft 499 kts 126°
2026-04-22 15:36 21.13267 -101.05172 37149 ft 499 kts 126°
2026-04-22 15:36 21.09416 -100.98981 37149 ft 499 kts 126°
2026-04-22 15:37 21.05487 -100.92856 37148 ft 498 kts 129°
2026-04-22 15:37 21.01288 -100.86976 37147 ft 497 kts 131°
2026-04-22 15:38 20.97039 -100.81155 37145 ft 496 kts 131°
2026-04-22 15:38 20.90712 -100.72384 37149 ft 496 kts 131°
2026-04-22 15:39 20.87224 -100.67518 37147 ft 496 kts 131°
2026-04-22 15:39 20.83034 -100.61672 37153 ft 495 kts 131°
2026-04-22 15:40 20.78840 -100.55832 37143 ft 495 kts 131°
2026-04-22 15:40 20.76740 -100.52912 36949 ft 498 kts 131°
2026-04-22 15:40 20.74623 -100.49971 36452 ft 499 kts 130°
2026-04-22 15:41 20.72514 -100.47040 35893 ft 498 kts 130°
2026-04-22 15:41 20.70401 -100.44106 35292 ft 498 kts 130°
2026-04-22 15:41 20.68288 -100.41173 34658 ft 500 kts 129°
2026-04-22 15:41 20.66160 -100.38221 33939 ft 502 kts 129°
2026-04-22 15:42 20.64033 -100.35271 33399 ft 500 kts 129°
2026-04-22 15:42 20.61922 -100.32343 32916 ft 495 kts 129°
2026-04-22 15:42 20.59831 -100.29445 32455 ft 491 kts 129°
2026-04-22 15:42 20.57756 -100.26572 31983 ft 487 kts 128°
2026-04-22 15:43 20.55697 -100.23723 31509 ft 483 kts 128°
2026-04-22 15:43 20.53653 -100.20897 31038 ft 479 kts 128°
2026-04-22 15:43 20.51622 -100.18089 30541 ft 477 kts 128°
2026-04-22 15:43 20.49604 -100.15300 29991 ft 473 kts 128°
2026-04-22 15:44 20.47601 -100.12534 29439 ft 469 kts 128°
2026-04-22 15:44 20.45644 -100.09831 28919 ft 465 kts 128°
2026-04-22 15:44 20.43677 -100.07117 28402 ft 460 kts 128°
2026-04-22 15:44 20.41729 -100.04430 27896 ft 456 kts 128°
2026-04-22 15:45 20.39796 -100.01765 27394 ft 452 kts 128°
2026-04-22 15:45 20.37881 -99.99125 26906 ft 448 kts 128°
2026-04-22 15:45 20.35981 -99.96509 26401 ft 445 kts 128°
2026-04-22 15:45 20.34097 -99.93916 25920 ft 441 kts 128°
2026-04-22 15:46 20.32224 -99.91337 25460 ft 438 kts 128°
2026-04-22 15:46 20.30365 -99.88780 24989 ft 436 kts 128°
2026-04-22 15:46 20.28514 -99.86233 24525 ft 433 kts 128°
2026-04-22 15:46 20.26674 -99.83704 24054 ft 430 kts 129°
2026-04-22 15:47 20.24844 -99.81190 23558 ft 428 kts 129°
2026-04-22 15:47 20.23025 -99.78701 23041 ft 424 kts 130°
2026-04-22 15:47 20.20869 -99.76614 22551 ft 417 kts 149°
2026-04-22 15:47 20.18279 -99.75318 22098 ft 408 kts 166°
2026-04-22 15:48 20.15529 -99.74685 21677 ft 402 kts 172°
2026-04-22 15:48 20.12788 -99.74170 21216 ft 399 kts 172°
2026-04-22 15:48 20.10065 -99.73674 20761 ft 395 kts 172°
2026-04-22 15:48 20.07362 -99.73173 20328 ft 392 kts 172°
2026-04-22 15:49 20.04690 -99.72662 19896 ft 389 kts 171°
2026-04-22 15:49 20.02035 -99.72144 19452 ft 387 kts 171°
2026-04-22 15:49 19.99396 -99.71622 19013 ft 385 kts 171°
2026-04-22 15:49 19.96758 -99.71098 18332 ft 389 kts 171°
2026-04-22 15:50 19.94087 -99.70567 17706 ft 390 kts 171°
2026-04-22 15:50 19.91440 -99.70040 17231 ft 381 kts 170°
2026-04-22 15:50 19.88908 -99.69535 17068 ft 360 kts 171°
2026-04-22 15:50 19.86508 -99.69057 16922 ft 344 kts 170°
2026-04-22 15:51 19.84281 -99.68241 16781 ft 337 kts 150°
2026-04-22 15:51 19.82380 -99.66719 16593 ft 354 kts 136°
2026-04-22 15:51 19.80792 -99.64683 16347 ft 360 kts 124°
2026-04-22 15:51 19.79431 -99.62423 16109 ft 366 kts 121°
2026-04-22 15:52 19.78117 -99.60128 15889 ft 360 kts 121°
2026-04-22 15:52 19.76845 -99.57892 15803 ft 358 kts 121°
2026-04-22 15:52 19.75546 -99.55635 15766 ft 357 kts 122°
2026-04-22 15:52 19.74124 -99.53446 15541 ft 355 kts 126°
2026-04-22 15:53 19.72642 -99.51374 15522 ft 352 kts 127°
2026-04-22 15:53 19.71156 -99.49338 15547 ft 355 kts 127°
2026-04-22 15:53 19.69647 -99.47266 15544 ft 355 kts 127°
2026-04-22 15:53 19.68146 -99.45189 15546 ft 354 kts 127°
2026-04-22 15:54 19.66658 -99.43116 15528 ft 349 kts 127°
2026-04-22 15:54 19.65206 -99.41083 15096 ft 345 kts 126°
2026-04-22 15:54 19.63767 -99.39061 14521 ft 342 kts 126°
2026-04-22 15:54 19.62345 -99.37061 14033 ft 336 kts 126°
2026-04-22 15:55 19.60966 -99.35121 13782 ft 322 kts 126°
2026-04-22 15:55 19.59648 -99.33267 13562 ft 309 kts 126°
2026-04-22 15:55 19.58371 -99.31473 13312 ft 300 kts 126°
2026-04-22 15:55 19.57137 -99.29739 13065 ft 290 kts 126°
2026-04-22 15:56 19.55937 -99.28055 12793 ft 283 kts 126°
2026-04-22 15:56 19.54770 -99.26418 12612 ft 273 kts 126°
2026-04-22 15:56 19.53629 -99.24846 12491 ft 266 kts 131°
2026-04-22 15:56 19.52136 -99.23751 12320 ft 262 kts 160°
2026-04-22 15:57 19.50367 -99.23430 12076 ft 256 kts 178°
2026-04-22 15:57 19.48603 -99.23411 11786 ft 252 kts 179°
2026-04-22 15:57 19.46861 -99.23403 11499 ft 248 kts 179°
2026-04-22 15:57 19.45146 -99.23385 11239 ft 245 kts 179°
2026-04-22 15:58 19.43447 -99.23361 10948 ft 243 kts 179°
2026-04-22 15:58 19.41764 -99.23335 10700 ft 241 kts 179°
2026-04-22 15:58 19.40093 -99.23254 10415 ft 239 kts 171°
2026-04-22 15:58 19.38575 -99.22643 10121 ft 232 kts 142°
2026-04-22 15:59 19.37580 -99.21393 9860 ft 218 kts 113°
2026-04-22 15:59 19.37230 -99.19895 9634 ft 204 kts 86°
2026-04-22 15:59 19.37521 -99.18481 9481 ft 190 kts 68°
2026-04-22 15:59 19.38020 -99.17219 9385 ft 184 kts 64°
2026-04-22 16:00 19.38577 -99.16021 9190 ft 177 kts 59°
2026-04-22 16:00 19.39170 -99.14928 9009 ft 171 kts 58°
2026-04-22 16:00 19.39773 -99.13847 8803 ft 171 kts 58°
2026-04-22 16:00 19.40380 -99.12759 8573 ft 172 kts 58°
2026-04-22 16:01 19.40987 -99.11669 8247 ft 171 kts 58°
2026-04-22 16:01 19.41588 -99.10590 7935 ft 169 kts 58°
2026-04-22 16:01 19.42189 -99.09516 7629 ft 170 kts 59°
2026-04-22 16:01 19.42789 -99.08431 7377 ft 172 kts 59°
2026-04-22 16:02 19.43379 -99.07384 7348 ft 159 kts 60°
2026-04-22 16:02 19.43983 -99.06341 7878 ft 182 kts 58°
2026-04-22 16:02 19.44682 -99.05135 8618 ft 205 kts 58°
2026-04-22 16:02 19.45430 -99.03794 9183 ft 216 kts 59°
2026-04-22 16:03 19.45868 -99.02273 9867 ft 220 kts 88°
2026-04-22 16:03 19.45473 -99.00642 10405 ft 242 kts 117°
2026-04-22 16:03 19.44947 -98.98941 11152 ft 247 kts 89°
2026-04-22 16:03 19.44976 -98.97126 12068 ft 253 kts 88°
2026-04-22 16:04 19.44930 -98.95142 12414 ft 286 kts 90°
2026-04-22 16:04 19.44724 -98.92910 12449 ft 326 kts 104°
2026-04-22 16:04 19.43577 -98.90687 12468 ft 366 kts 129°
2026-04-22 16:04 19.41555 -98.88890 12420 ft 388 kts 150°
2026-04-22 16:05 19.39044 -98.87991 12407 ft 379 kts 172°
2026-04-22 16:05 19.36437 -98.88144 12400 ft 375 kts 194°
2026-04-22 16:05 19.34079 -98.89278 12407 ft 375 kts 216°
2026-04-22 16:05 19.32200 -98.91175 12398 ft 375 kts 234°
2026-04-22 16:06 19.30890 -98.93550 12429 ft 373 kts 244°
2026-04-22 16:06 19.29751 -98.96014 12423 ft 371 kts 245°
2026-04-22 16:06 19.28660 -98.98393 12414 ft 357 kts 245°
2026-04-22 16:06 19.27574 -99.00695 12422 ft 342 kts 244°
2026-04-22 16:07 19.26508 -99.02909 12407 ft 334 kts 244°
2026-04-22 16:07 19.25516 -99.05187 12420 ft 353 kts 255°
2026-04-22 16:07 19.25286 -99.07824 12422 ft 369 kts 278°
2026-04-22 16:07 19.26078 -99.10368 11978 ft 367 kts 303°
2026-04-22 16:08 19.27624 -99.12487 11558 ft 362 kts 310°
2026-04-22 16:08 19.29201 -99.14543 11128 ft 354 kts 309°
2026-04-22 16:08 19.30681 -99.16539 10957 ft 334 kts 309°
2026-04-22 16:08 19.32079 -99.18412 10817 ft 314 kts 314°
2026-04-22 16:09 19.33818 -99.19624 10711 ft 292 kts 346°
2026-04-22 16:09 19.35734 -99.19614 10690 ft 268 kts 19°
2026-04-22 16:09 19.37166 -99.18531 10619 ft 248 kts 52°
2026-04-22 16:09 19.37996 -99.17012 10550 ft 229 kts 59°
2026-04-22 16:10 19.38772 -99.15636 10430 ft 206 kts 57°
2026-04-22 16:10 19.39464 -99.14404 10259 ft 184 kts 58°
2026-04-22 16:10 19.39877 -99.13658 10040 ft 173 kts 58°
2026-04-22 16:10 19.40695 -99.12210 9219 ft 174 kts 58°
2026-04-22 16:11 19.41306 -99.11086 8435 ft 177 kts 59°
2026-04-22 16:11 19.41921 -99.09994 7807 ft 164 kts 59°
2026-04-22 16:11 19.42493 -99.08954 7464 ft 160 kts 62°
2026-04-22 16:11 19.43055 -99.07955 7304 ft 152 kts 62°
2026-04-22 16:12 19.43496 -99.07168 7301 ft 93 kts 59°
2026-04-22 16:12 19.43721 -99.06767 7303 ft 41 kts 59°
2026-04-22 16:12 19.43831 -99.06578 7302 ft 25 kts 51°
2026-04-22 16:12 19.43937 -99.06515 7303 ft 15 kts 348°
2026-04-22 16:13 19.43960 -99.06543 7303 ft 0 kts 284°
2026-04-22 16:14 19.43962 -99.06561 7304 ft 9 kts 272°
2026-04-22 16:14 19.43961 -99.06657 7305 ft 13 kts 270°
2026-04-22 16:14 19.43961 -99.06752 7305 ft 13 kts 269°
2026-04-22 16:14 19.43958 -99.06846 7306 ft 13 kts 267°
2026-04-22 16:15 19.43938 -99.06940 7306 ft 15 kts 248°
2026-04-22 16:15 19.43881 -99.07051 7305 ft 18 kts 240°
2026-04-22 16:15 19.43820 -99.07161 7304 ft 17 kts 239°
2026-04-22 16:15 19.43838 -99.07237 7305 ft 11 kts 316°
2026-04-22 16:16 19.43867 -99.07302 7304 ft 10 kts 255°
2026-04-22 16:16 19.43834 -99.07366 7304 ft 10 kts 239°
2026-04-22 16:16 19.43799 -99.07427 7304 ft 10 kts 240°
2026-04-22 16:16 19.43766 -99.07488 7303 ft 9 kts 239°
2026-04-22 16:17 19.43734 -99.07546 7303 ft 9 kts 241°
2026-04-22 16:17 19.43702 -99.07603 7304 ft 9 kts 236°
2026-04-22 16:17 19.43673 -99.07659 7304 ft 9 kts 254°
2026-04-22 16:17 19.43696 -99.07707 7303 ft 6 kts 315°
2026-04-22 16:18 19.43710 -99.07721 7303 ft 0 kts 317°